Location: Unspecified
(43.3116°N, 2.0147°W)
Time: 11:23:48
(UTC+02:00)

Okean 3 - Visible Passes

Search period start: 20 July 2024 00:00
Search period end: 30 July 2024 00:00
Orbit: 560 x 582 km, 82.5° (Epoch: 19 July)

Date Brightness Start Highest point End Pass type
(mag) Time Alt. Az. Time Alt. Az. Time Alt. Az.
23 Jul 6.6 04:51:41 10° NE 04:53:07 12° ENE 04:54:33 10° E visible
24 Jul 6.3 04:53:13 10° NE 04:55:34 15° ENE 04:57:54 10° ESE visible
25 Jul 6.1 04:55:04 10° NNE 04:58:00 18° ENE 05:00:53 10° ESE visible
26 Jul 5.7 04:57:03 10° NNE 05:00:23 23° ENE 05:03:41 10° SE visible
27 Jul 5.3 04:59:08 10° NNE 05:02:45 29° ENE 05:06:20 10° SE visible
28 Jul 4.8 05:01:15 10° N 05:05:06 38° ENE 05:08:55 10° SE visible
29 Jul 4.3 05:03:25 10° N 05:07:25 49° ENE 05:11:23 10° SSE visible
